TimeMDT,TemperatureF,Dew PointF,Humidity,Sea Level PressureIn,VisibilityMPH,Wind Direction,Wind SpeedMPH,Gust SpeedMPH,PrecipitationIn,Events,Conditions,WindDirDegrees,DateUTC
12:53 AM,62.1,53.1,72,30.09,10.0,North,4.6,-,0.00,Rain,Light Rain,360,2013-09-12 06:53:00
1:53 AM,62.1,51.1,67,30.09,10.0,SSW,4.6,-,0.00,,Overcast,200,2013-09-12 07:53:00
2:53 AM,62.1,53.1,72,30.09,10.0,Calm,Calm,-,0.00,,Mostly Cloudy,0,2013-09-12 08:53:00
3:53 AM,60.1,54.0,80,30.09,10.0,Calm,Calm,-,0.00,,Overcast,0,2013-09-12 09:53:00
4:53 AM,61.0,52.0,72,30.08,10.0,Calm,Calm,-,0.00,,Overcast,0,2013-09-12 10:53:00
5:53 AM,60.1,54.0,80,30.10,10.0,SSE,3.5,-,N/A,,Overcast,160,2013-09-12 11:53:00
6:53 AM,60.1,54.0,80,30.13,10.0,SSW,3.5,-,0.03,Rain,Light Rain,200,2013-09-12 12:53:00
7:53 AM,57.9,55.9,93,30.15,10.0,NNE,8.1,-,0.03,Rain,Light Rain,30,2013-09-12 13:53:00
8:53 AM,59.0,54.0,83,30.15,10.0,NE,8.1,-,0.00,Rain,Light Rain,40,2013-09-12 14:53:00
9:53 AM,61.0,54.0,78,30.15,10.0,ENE,6.9,-,0.00,,Overcast,70,2013-09-12 15:53:00
10:53 AM,64.0,54.0,70,30.14,10.0,ENE,9.2,-,N/A,,Overcast,60,2013-09-12 16:53:00
11:53 AM,68.0,54.0,61,30.12,10.0,NE,6.9,-,N/A,,Clear,40,2013-09-12 17:53:00
12:53 PM,73.9,50.0,43,30.09,10.0,NE,6.9,-,N/A,,Scattered Clouds,40,2013-09-12 18:53:00
1:53 PM,73.9,48.9,41,30.06,10.0,NE,6.9,-,N/A,,Clear,50,2013-09-12 19:53:00
2:53 PM,75.9,48.0,37,30.03,10.0,Variable,3.5,-,N/A,,Clear,0,2013-09-12 20:53:00
3:53 PM,78.1,48.0,35,30.00,10.0,NE,5.8,-,0.00,,Clear,40,2013-09-12 21:53:00
4:53 PM,78.1,48.0,35,29.98,10.0,NNE,11.5,-,N/A,,Clear,20,2013-09-12 22:53:00
5:07 PM,77.0,48.2,36,30.11,10.0,North,9.2,-,N/A,Thunderstorm,Partly Cloudy,10,2013-09-12 23:07:00
5:22 PM,78.8,48.2,34,30.10,10.0,NNE,11.5,-,N/A,,Partly Cloudy,30,2013-09-12 23:22:00
5:53 PM,73.0,50.0,44,29.98,10.0,NE,11.5,18.4,N/A,,Scattered Clouds,50,2013-09-12 23:53:00
6:53 PM,73.0,51.1,46,29.98,10.0,NE,5.8,-,N/A,,Mostly Cloudy,50,2013-09-13 00:53:00
7:53 PM,71.1,50.0,47,29.99,10.0,NE,5.8,-,0.00,,Mostly Cloudy,40,2013-09-13 01:53:00
8:53 PM,66.9,51.1,57,30.01,10.0,Variable,3.5,-,N/A,,Scattered Clouds,0,2013-09-13 02:53:00
9:53 PM,63.0,53.1,70,30.01,10.0,Calm,Calm,-,N/A,,Clear,0,2013-09-13 03:53:00
10:53 PM,62.1,52.0,70,30.01,10.0,NE,3.5,-,N/A,,Mostly Cloudy,50,2013-09-13 04:53:00
11:53 PM,62.1,52.0,70,30.00,10.0,North,4.6,-,N/A,,Clear,10,2013-09-13 05:53:00